Location: Góry Miechowskie
(50.3599°N, 20.1803°E)
Time: 11:51:56
(UTC+00:00)

Vanguard 1 Rocket - Pass Details

Date: 14 September 2024
Orbit: 650 x 4218 km, 34.3° (Epoch: 12 October)

Event Time Altitude Azimuth Distance (km) Brightness Sun altitude
Rises 04:31:50 0° 249° (WSW) 6,413 11.1 2.0°
Reaches altitude 10° 04:35:36 10° 245° (WSW) 5,790 10.9 2.6°
Maximum altitude 04:54:29 52° 176° (S) 4,593 11.1 5.6°
Drops below altitude 10° 05:18:45 10° 111° (ESE) 7,226 14.0 9.5°
Sets 05:24:11 0° 107° (ESE) 8,021 14.3 10.3°
